Zurück zum Katalog

FENGYUN 1C DEB

AktivSSO
NORAD 29968·DEBRIS·🇨🇳 China

Gestartet May 10, 1999 von Taiyuan Satellite Launch Center

Loading…

Nächste Überflüge (nächste 24 Stunden)

TLE

AktuellSource: Space-Track

Epoche: Sep 14, 2026, 11:26 UTC

1 29968U 99025KS  26257.47653681  .00000080  00000-0  71382-4 0  9994
2 29968  98.8271 245.5536 0088957 298.9739 225.7503 14.07416454  9240

Verfolge FENGYUN 1C DEB in Echtzeit mit AllMySat

Download on the App Store